Location: Göçerler Yaylas?
(37.0000°N, 30.0333°E)
Time: 23:33:33
(UTC+00:00)

Daily predictions for brighter satellites

Satellite Brightness Start Highest point End
(mag) Time Altitude Azimuth Time Altitude Azimuth Time Altitude Azimuth
CZ-4C R/B 3.7 14:59:11 10° NNW 15:05:29 31° NE 15:12:53 10° ESE
USA 290 3.4 15:07:44 10° N 15:10:24 22° ENE 15:13:02 10° ESE
NOSS 2-3 (D) 4.4 15:07:32 10° S 15:10:48 26° ESE 15:13:54 10° ENE
ARIANE 5 R/B 2.9 15:08:33 10° SE 15:13:13 41° ENE 15:17:59 10° N
BREEZE-M DEB (TANK) 4.4 15:10:43 10° NNW 15:13:23 19° NNE 15:18:37 10° ENE
CZ-2D R/B 3.6 15:13:22 10° SE 15:16:04 27° ENE 15:18:47 10° NNE
ATLAS CENTAUR R/B 1.4 15:14:31 10° N 15:17:25 31° NE 15:20:14 10° ESE
Cosmos 2266 Rocket 4.2 15:12:22 10° N 15:18:13 44° ENE 15:23:57 10° SSE
Cosmos 1980 Rocket 3.4 15:17:18 10° SSE 15:21:37 23° E 15:25:55 10° NE
Cosmos 2098 Rocket 3.1 15:18:01 10° SSW 15:21:45 74° W 15:26:13 10° N
BREEZE-M DEB (TANK) 3.0 15:20:57 10° WNW 15:22:03 15° NNW 15:23:19 10° NNE
Cosmos 1733 2.0 15:23:30 10° NNW 15:25:03 46° W 15:26:34 10° S
Cosmos 1758 Rocket 3.5 15:21:08 10° N 15:25:26 86° W 15:29:42 10° S
Cosmos 2208 Rocket 3.9 15:20:34 10° NNW 15:25:44 75° ENE 15:30:56 10° SSE
NOSS 3-2 (C) 3.4 15:23:48 10° SW 15:28:35 63° NW 15:34:10 10° NNE
Cosmos 2151 2.9 15:27:36 10° N 15:31:44 62° E 15:35:50 10° SSE
SL-16 R/B 3.9 15:28:24 10° N 15:34:03 38° WNW 15:39:41 10° SW
CORIOLIS 4.2 15:29:43 10° SSE 15:35:02 86° WSW 15:40:24 10° NNW
Cosmos 1743 2.2 15:32:17 10° N 15:35:32 85° W 15:38:45 10° S
Helios 1A Rocket 4.2 15:38:25 15° E 15:38:42 15° E 15:40:45 10° SE
Cosmos 2263 Rocket 3.6 15:35:42 10° NNE 15:39:21 17° NE 15:41:20 15° ENE
MOS 1 Rocket 3.4 15:36:55 10° SSE 15:41:34 57° ENE 15:46:31 10° N
AQUARIUS 4.0 15:41:52 10° SSE 15:46:13 66° ENE 15:50:36 10° N
Thor Agena Rocket 4.4 15:44:17 10° S 15:49:22 53° W 15:54:27 10° NNW
Cosmos 1933 3.2 15:46:09 10° S 15:49:58 84° W 15:53:48 10° N
Cosmos 1606 Rocket 3.5 15:46:59 10° S 15:51:22 87° E 15:55:47 10° N
SJ-12 3.7 15:47:44 10° SSE 15:51:30 86° WSW 15:55:17 10° NNW
Cosmos 2227 Rocket 2.7 15:47:09 10° N 15:52:21 37° ENE 15:57:33 10° SE
Cosmos 1076 Rocket 4.2 15:49:05 10° NNE 15:52:57 32° ENE 15:56:48 10° SE
Cosmos 2084 Rocket 3.9 15:53:50 10° NNW 15:57:46 38° NE 16:00:12 20° ESE
CZ-2D R/B 3.9 15:54:24 10° SE 15:58:15 37° ENE 16:02:07 10° N
Cosmos 724 4.2 15:53:37 10° NNW 15:59:38 79° ENE 16:05:29 10° SSE
Meteor 2-20 4.5 15:53:39 10° S 15:59:39 58° E 16:05:41 10° NNE
IRS-1C 4.4 15:55:10 10° S 16:00:27 71° WSW 16:05:47 10° NNW
BlueWalker 3 1.7 15:57:27 10° NW 16:01:04 83° SW 16:04:33 11° SE
Resurs 1-3 4.2 15:57:24 10° SE 16:01:12 32° ENE 16:05:02 10° N
Hubble Space Telescope 3.0 16:00:55 10° S 16:02:39 13° SSE 16:04:21 10° SE
Cosmos 1697 Rocket 3.1 15:57:06 10° SSW 16:02:39 65° WNW 16:08:14 10° NNE
COSMO-SKYMED 1 2.6 16:02:54 19° NNE 16:05:41 50° E 16:09:41 10° S
BREEZE-M DEB (TANK) 2.8 16:00:50 10° WSW 16:06:15 66° NW 16:07:20 34° NE
BREEZE M DEB (TANK) 2.8 16:03:28 10° NW 16:11:20 58° NNE 16:12:30 37° E
Spot 4 Rocket 4.1 16:06:44 10° SE 16:11:37 49° ENE 16:16:32 10° N
BREEZE-M DEB (TANK) 3.8 16:02:35 10° SW 16:13:52 65° SE 16:16:20 30° ENE
Okean 1 4.4 16:11:40 10° SSE 16:13:33 24° SE 16:13:33 24° SE
Okean 1-7 Rocket 4.2 16:11:11 10° NNW 16:15:29 56° W 16:19:44 10° S
Cosmos 1726 Rocket 4.0 16:12:02 10° SSW 16:16:39 68° W 16:21:17 10° N
ATLAS 5 CENTAUR R/B 4.5 16:12:35 10° SSW 16:19:02 87° SE 16:48:48 10° NE
Gbstr 26 Del rocket 4.3 16:15:36 10° W 16:19:06 27° NNW 16:20:36 21° N
Cosmos 1655 Rocket 3.9 16:12:59 10° N 16:19:14 75° E 16:25:25 10° SSE
Cosmos 1898 Rocket 3.6 16:16:19 10° S 16:21:15 51° ESE 16:23:03 35° NE
Meteor 2-20 Rocket 4.4 16:15:34 10° S 16:21:47 62° E 16:27:49 10° NNE
NOSS 2-3 (C) 3.8 16:21:02 10° SW 16:24:27 47° NW 16:25:40 31° N
SKYMED 2 4.2 16:23:03 10° N 16:27:18 55° WNW 16:31:31 10° SSW
USA 238 DEB 3.4 16:22:29 10° SW 16:28:27 82° WNW 16:32:29 24° NNE
USA 238 3.4 16:22:35 10° SSW 16:28:34 83° NW 16:32:34 25° NNE
YAOGAN 1 2.3 16:25:45 10° SSE 16:29:59 73° ENE 16:34:14 10° N
Meteor 2-10 4.1 16:25:01 10° N 16:30:20 56° E 16:35:46 10° SSE
Meteor 1-26 Rocket 4.0 16:27:13 10° S 16:32:37 68° E 16:35:38 27° NNE
SJ-7 4.3 16:36:58 10° S 16:44:59 - NNW 16:40:10 65° S
Cosmos 1867 3.5 16:36:13 10° NNW 16:41:41 85° WSW 16:46:41 12° SSE
Cosmos 1937 Rocket 3.4 16:38:23 10° S 16:43:29 61° ESE 16:43:35 60° E
Cosmos 372 Rocket 4.0 16:39:03 10° SSW 16:44:13 75° WNW 16:46:33 33° N
SL-16 R/B 4.2 16:40:13 10° SSE 16:40:50 12° SSE 16:40:50 12° SSE
Aureole 1 Rocket 3.5 16:40:57 10° SSW 16:44:51 61° WNW 16:46:49 33° N
Cosmos 2297 Rocket 4.0 16:40:08 10° NW 16:45:02 31° WSW 16:49:55 10° SSW
Cosmos-2242 3.1 16:43:38 10° SSW 16:47:50 70° W 16:48:42 52° NNW
Cosmos 1953 Rocket 4.1 16:45:45 10° NNW 16:50:07 58° W 16:54:28 10° S
ATLAS CENTAUR R/B 4.3 16:51:04 10° W 16:51:50 11° WSW 16:52:36 10° SW
H-II Stage 2 4.3 16:48:21 10° W 16:53:21 18° SW 16:55:22 12° S
CZ-4C R/B 3.4 16:46:45 10° NW 16:54:21 70° WSW 17:03:19 10° SSE
NOAA 6 3.9 16:51:39 10° SSE 16:56:46 90° W 17:01:54 10° NNW
USA 81 4.4 16:55:01 10° NNW 17:00:13 62° W 17:05:23 10° S
Cosmos 2219 4.4 16:56:47 10° NNW 16:59:37 29° N 16:59:37 29° N
Cosmos 1980 Rocket 3.2 16:59:51 10° SW 17:05:14 44° WNW 17:08:01 26° N
Cosmos 2369 3.9 17:07:33 10° SSW 17:13:14 70° WNW 17:13:46 65° NNW
Nadezhda 2 Rocket 4.4 17:07:32 10° N 17:13:40 83° W 17:19:45 10° S
Cosmos 1553 Rocket 4.4 17:12:16 10° SSW 17:18:17 61° W 17:22:05 24° N
COSMOS 2455 3.4 17:16:14 10° SSW 17:20:24 46° S 17:20:24 46° S
Cosmos 2263 Rocket 2.5 17:18:07 10° NNW 17:23:10 62° WNW 17:23:10 62° WNW
Cosmos 2227 Rocket 4.1 17:31:29 10° NW 17:36:10 27° WSW 17:40:50 10° SSW
